Tracking 17855 objects as of 25-September-2016
HD Live streaming from Space Station
objects crossing your sky now

MOZ.5/SAFIR/RUBIN 5/SL-8

Track MOZ.5/SAFIR/RUBIN 5/SL-8 now!
10-day predictions
MOZ.5/SAFIR/RUBIN 5/SL-8 is classified as:


NORAD ID: 28898
Int'l Code: 2005-043G
Perigee: 686.7 km
Apogee: 713.1 km
Inclination: 97.9 °
Period: 98.6 minutes
Semi major axis: 7070 km
RCS: 6.834 m2 (large)
Launch date: October 27, 2005
Source: Germany (GER)
Launch site: PLESETSK MISSILE AND SPACE COMPLEX (PKMTR)
Uplink (MHz):
Downlink (MHz):
Beacon (MHz):
Mode:
Call sign:
Status:

Your satellite tracking list
Your tracking list is empty





NASA's NSSDC Master Catalog

Two Line Element Set (TLE):
1 28898U 05043G   16269.05845660  .00000104  00000-0  30870-4 0  9992
2 28898  97.8922  64.9272 0018643 303.6767  56.2655 14.60128310581142
Source of the keplerian elements: AFSPC

N2YO: 474